FW0472 Weather Reports


Display with metric or nautical units.
time (UTC)temp
F
wind
direction
speed
MPH
gust
MPH
rain 1hr
in
rain 24hr
in
rain mn
in
humidity
%
barometer
mb
20260502211702 50 1 0.0 0.0 0.00 0.18 0.18 82 1037.2
20260502211159 50 341 0.0 0.0 0.00 0.18 0.18 82 1037.1
20260502210656 51 352 0.0 0.0 0.00 0.18 0.18 81 1037.2
20260502210153 51 342 0.0 0.0 0.00 0.18 0.18 80 1036.9
20260502205650 51 335 0.0 0.0 0.00 0.18 0.18 80 1037.1
20260502205147 51 349 0.0 0.0 0.00 0.18 0.18 78 1037.1
20260502204644 52 357 0.0 0.0 0.00 0.18 0.18 77 1037.1
20260502204142 52 55 1.0 2.0 0.00 0.18 0.18 78 1037.1
20260502203638 51 330 0.0 0.0 0.00 0.18 0.18 80 1037.3
20260502203136 51 338 0.0 0.0 0.00 0.18 0.18 80 1037.2
20260502202631 51 41 1.0 1.0 0.00 0.18 0.18 78 1037.2
20260502202130 51 349 0.0 0.0 0.00 0.18 0.18 79 1037.3
20260502201626 51 10 0.0 1.0 0.00 0.18 0.18 78 1037.3
20260502201122 51 343 0.0 0.0 0.00 0.18 0.18 79 1037.2
20260502200618 51 24 0.0 0.0 0.00 0.18 0.18 81 1037.4
20260502200116 52 323 0.0 0.0 0.00 0.18 0.18 79 1037.5
20260502195614 51 350 0.0 0.0 0.00 0.18 0.18 80 1037.5
20260502195109 51 330 0.0 0.0 0.00 0.18 0.18 81 1037.4
20260502194606 51 325 0.0 0.0 0.00 0.18 0.18 83 1037.6
20260502194102 52 47 1.0 1.0 0.00 0.18 0.18 81 1037.5
20260502193600 53 55 2.0 2.0 0.00 0.18 0.18 82 1037.6
20260502193056 53 355 0.0 1.0 0.00 0.18 0.18 79 1037.6
20260502192552 52 325 2.0 2.0 0.00 0.18 0.18 79 1037.6
20260502192050 53 65 1.0 2.0 0.00 0.18 0.18 82 1037.6
20260502191546 51 330 0.0 1.0 0.00 0.18 0.18 81 1037.6
20260502191044 51 323 0.0 0.0 0.00 0.18 0.18 85 1037.7
20260502190542 50 321 0.0 0.0 0.00 0.18 0.18 88 1037.5
20260502190038 50 348 0.0 0.0 0.00 0.18 0.18 88 1037.8
20260502185533 50 320 1.0 1.0 0.00 0.18 0.18 87 1037.9
20260502185030 49 323 0.0 0.0 0.00 0.18 0.18 89 1037.8
20260502184526 48 294 3.0 3.0 0.00 0.18 0.18 87 1037.9
20260502184022 48 337 0.0 0.0 0.00 0.18 0.18 94 1037.8
20260502183519 48 347 0.0 0.0 0.07 0.18 0.18 96 1037.8
20260502183015 47 326 0.0 0.0 0.12 0.18 0.18 97 1038.0
20260502182509 46 353 0.0 0.0 0.12 0.17 0.17 96 1037.9
20260502182006 46 323 0.0 0.0 0.07 0.16 0.16 95 1037.9
20260502181504 46 326 0.0 0.0 0.00 0.15 0.15 94 1037.9
20260502181003 46 337 0.0 0.0 0.00 0.15 0.15 95 1037.9
20260502180459 46 343 0.0 0.0 0.05 0.15 0.15 96 1037.9
20260502170418 46 357 0.0 0.0 0.00 0.08 0.08 92 1038.0
20260502163901 46 33 1.0 1.0 0.00 0.08 0.08 93 1037.8
20260502163358 46 42 2.0 2.0 0.00 0.08 0.08 93 1037.8
20260502162856 47 332 0.0 0.0 0.00 0.08 0.08 93 1037.9
20260502162352 47 38 2.0 2.0 0.00 0.08 0.08 92 1038.0
20260502161849 48 4 1.0 1.0 0.00 0.08 0.08 91 1037.8
20260502161345 48 355 0.0 0.0 0.00 0.08 0.08 92 1037.9
20260502160843 47 51 2.0 2.0 0.00 0.08 0.08 90 1038.0
20260502160342 47 35 1.0 1.0 0.00 0.08 0.08 92 1037.9
20260502152316 45 24 1.0 1.0 0.00 0.07 0.07 95 1038.4
20260502151814 45 357 0.0 0.0 0.07 0.07 0.07 93 1038.4
20260502151311 45 357 0.0 0.0 0.07 0.07 0.07 93 1038.4
20260502150809 45 9 0.0 0.0 0.00 0.06 0.06 92 1038.6
20260502150305 45 16 0.0 1.0 0.00 0.06 0.06 92 1038.6
20260502130653 43 331 0.0 0.0 0.00 0.06 0.06 99 1038.9
20260502130151 42 337 0.0 0.0 0.00 0.06 0.06 99 1038.8
20260502123636 41 325 0.0 0.0 0.00 0.06 0.06 99 1039.1
20260502123133 41 322 0.0 1.0 0.00 0.06 0.06 99 1039.1
20260502122629 41 304 1.0 1.0 0.00 0.06 0.06 99 1039.0
20260502122126 41 321 1.0 1.0 0.00 0.06 0.06 99 1039.0
20260502121624 41 324 0.0 0.0 0.00 0.06 0.06 99 1038.7
20260502121121 41 321 0.0 0.0 0.00 0.06 0.06 99 1038.9
20260502120618 41 317 1.0 1.0 0.00 0.06 0.06 99 1038.8
20260502120115 41 325 0.0 1.0 0.00 0.06 0.06 99 1038.9
20260502115613 41 321 0.0 1.0 0.00 0.06 0.06 99 1038.9
20260502115108 40 321 1.0 1.0 0.00 0.06 0.06 99 1038.8
20260502114605 40 326 0.0 0.0 0.00 0.06 0.06 99 1038.8
20260502114102 40 301 1.0 1.0 0.00 0.06 0.06 99 1038.9
20260502113559 40 327 0.0 0.0 0.00 0.06 0.06 99 1039.0
20260502113058 40 316 1.0 1.0 0.00 0.06 0.06 99 1039.0
20260502112555 41 325 0.0 0.0 0.00 0.06 0.06 99 1038.8
20260502112053 41 324 0.0 0.0 0.00 0.06 0.06 99 1038.9
20260502111550 41 317 0.0 0.0 0.00 0.06 0.06 99 1039.1
20260502111047 41 330 0.0 0.0 0.00 0.06 0.06 99 1039.0
20260502110544 41 319 0.0 0.0 0.00 0.06 0.06 99 1038.8
20260502110042 41 323 0.0 0.0 0.00 0.06 0.06 99 1038.9
20260502105539 41 324 0.0 0.0 0.00 0.06 0.06 99 1038.6
20260502105037 41 291 0.0 1.0 0.00 0.06 0.06 99 1038.7
20260502104533 41 311 1.0 1.0 0.00 0.06 0.06 99 1038.6
20260502104031 41 322 0.0 1.0 0.00 0.06 0.06 99 1038.5
20260502103529 41 324 0.0 0.0 0.00 0.06 0.06 99 1038.3
20260502103027 41 325 0.0 0.0 0.00 0.06 0.06 99 1038.5
20260502102522 41 325 0.0 0.0 0.00 0.06 0.06 99 1038.7
20260502102020 41 315 0.0 0.0 0.00 0.06 0.06 98 1038.7
20260502101518 41 325 0.0 0.0 0.00 0.06 0.06 98 1038.5
20260502101016 41 332 0.0 0.0 0.05 0.06 0.06 98 1038.5
20260502100514 41 332 0.0 0.0 0.05 0.06 0.06 98 1038.7
20260502091448 41 332 0.0 0.0 0.07 0.05 0.05 98 1038.7
20260502090946 41 332 0.0 0.0 0.07 0.05 0.05 98 1038.8
20260502090443 41 332 0.0 0.0 0.00 0.04 0.04 98 1038.9
20260502071337 41 1 0.0 0.0 0.00 0.02 0.02 95 1038.9
20260502070835 41 344 0.0 0.0 0.00 0.02 0.02 94 1038.8
20260502070332 41 340 0.0 0.0 0.00 0.02 0.02 94 1038.9
20260502065831 41 336 0.0 0.0 0.00 0.02 0.02 93 1038.9
20260502065329 40 338 0.0 0.0 0.00 0.02 0.02 93 1038.9
20260502064827 41 349 0.0 0.0 0.05 0.02 0.02 94 1039.4
20260502064325 40 16 0.0 1.0 0.05 0.02 0.02 93 1039.2
20260502063822 40 325 0.0 1.0 0.00 0.01 0.01 93 1039.3
20260502063319 40 353 0.0 0.0 0.00 0.01 0.01 92 1039.2
20260502062816 40 353 0.0 0.0 0.00 0.01 0.01 92 1039.2
20260502062314 40 354 0.0 0.0 0.00 0.01 0.01 92 1039.2
20260502061813 40 352 0.0 0.0 0.07 0.01 0.01 91 1039.5
20260502061310 41 328 0.0 0.0 0.07 0.01 0.01 89 1039.5
20260502060805 41 344 0.0 0.0 0.00 0.00 0.00 88 1039.6
20260502060301 40 341 0.0 0.0 0.00 0.00 0.00 85 1039.2
20260502055759 41 331 0.0 0.0 0.00 0.00 0.00 85 1039.4
20260502055256 41 318 1.0 1.0 0.00 0.00 0.00 82 1039.6
20260502054755 41 342 0.0 0.0 0.00 0.00 0.00 82 1039.5
20260502054253 41 355 1.0 1.0 0.00 0.00 0.00 81 1039.4
20260502053750 42 306 1.0 1.0 0.00 0.00 0.00 77 1039.0
20260502053247 41 348 0.0 0.0 0.00 0.00 0.00 73 1039.1
20260502052745 41 347 0.0 0.0 0.00 0.00 0.00 73 1039.1
20260502052243 41 328 0.0 0.0 0.00 0.00 0.00 77 1039.0
20260502051740 41 346 0.0 0.0 0.00 0.00 0.00 77 1039.0
20260502051239 41 324 0.0 1.0 0.00 0.00 0.00 77 1039.1
20260502050735 40 358 0.0 1.0 0.00 0.00 0.00 77 1038.9
20260502050231 41 343 0.0 0.0 0.00 0.00 0.00 79 1039.1
20260502045728 41 359 0.0 1.0 0.00 0.00 0.00 80 1038.8
20260502045225 40 337 0.0 0.0 0.00 0.00 0.00 80 1038.9
20260502044722 40 342 0.0 0.0 0.00 0.00 0.00 80 1039.0
20260502044218 40 335 0.0 0.0 0.00 0.00 0.00 79 1038.7
20260502043716 41 327 0.0 0.0 0.00 0.00 0.00 81 1038.7
20260502043213 40 327 0.0 0.0 0.00 0.00 0.00 78 1038.8
20260502042712 40 327 0.0 0.0 0.00 0.00 0.00 79 1038.8
20260502042210 40 327 0.0 0.0 0.00 0.00 0.00 79 1038.7
20260502041708 40 327 0.0 0.0 0.00 0.00 0.00 77 1038.7
20260502041204 40 327 0.0 0.0 0.00 0.00 0.00 78 1038.9
20260502040701 40 327 0.0 0.0 0.00 0.00 0.00 79 1039.0
20260502040159 40 327 0.0 0.0 0.00 0.00 0.00 79 1039.0
20260502035655 40 327 0.0 0.0 0.00 0.00 0.00 78 1038.9
20260502035151 40 327 0.0 0.0 0.00 0.00 0.00 77 1038.9
20260502034649 40 327 0.0 0.0 0.00 0.00 0.00 78 1038.9
20260502034147 40 327 0.0 0.0 0.00 0.00 0.00 75 1038.9
20260502033645 40 327 0.0 0.0 0.00 0.00 0.00 74 1038.9
20260502033143 40 328 0.0 0.0 0.00 0.00 0.00 74 1038.7
20260502032639 40 329 0.0 0.0 0.00 0.00 0.00 76 1038.8
20260502032135 40 329 0.0 0.0 0.00 0.00 0.00 76 1038.8
20260502031633 41 329 0.0 0.0 0.00 0.00 0.00 76 1038.7
20260502031131 41 329 0.0 0.0 0.00 0.00 0.00 72 1038.6
20260502030629 41 329 0.0 0.0 0.00 0.00 0.00 71 1038.7
20260502030127 41 329 0.0 0.0 0.00 0.00 0.00 70 1038.7
20260502025624 41 329 0.0 0.0 0.00 0.00 0.00 69 1038.7
20260502025122 41 329 0.0 0.0 0.00 0.00 0.00 71 1038.6
20260502024619 42 329 0.0 0.0 0.00 0.00 0.00 73 1038.8
20260502024117 42 329 0.0 0.0 0.00 0.00 0.00 73 1038.7
20260502023615 42 329 0.0 0.0 0.00 0.00 0.00 72 1038.7
20260502023112 42 330 0.0 0.0 0.00 0.00 0.00 70 1038.7
20260502022609 43 330 0.0 0.0 0.00 0.00 0.00 70 1038.8
20260502022106 43 330 0.0 0.0 0.00 0.00 0.00 69 1038.8
20260502021603 43 330 0.0 0.0 0.00 0.00 0.00 68 1038.8
20260502021100 44 330 0.0 0.0 0.00 0.00 0.00 68 1038.9
20260502020557 44 330 0.0 0.0 0.00 0.00 0.00 68 1038.8
20260502020054 44 330 0.0 0.0 0.00 0.00 0.00 66 1038.8
20260502015552 45 330 0.0 0.0 0.00 0.00 0.00 64 1038.7
20260502015048 45 330 0.0 0.0 0.00 0.00 0.00 62 1039.0
20260502014545 45 330 0.0 0.0 0.00 0.00 0.00 62 1038.9
20260502014043 45 330 0.0 0.0 0.00 0.00 0.00 62 1038.8
20260502013538 46 330 0.0 0.0 0.00 0.00 0.00 62 1038.9
20260502013034 45 330 0.0 0.0 0.00 0.00 0.00 61 1038.7
20260502012532 46 330 0.0 0.0 0.00 0.00 0.00 64 1038.8
20260502012029 46 330 0.0 0.0 0.00 0.00 0.00 61 1038.6
20260502011526 46 330 0.0 0.0 0.00 0.00 0.00 61 1038.7
20260502011022 45 330 0.0 0.0 0.00 0.00 0.00 60 1038.4
20260502010520 45 330 0.0 0.0 0.00 0.00 0.00 61 1038.6
20260502010016 46 330 0.0 0.0 0.00 0.00 0.00 62 1038.5
20260502005514 46 330 0.0 0.0 0.00 0.00 0.00 62 1038.5
20260502005012 47 331 0.0 0.0 0.00 0.00 0.00 62 1038.4
20260502004507 47 331 0.0 0.0 0.00 0.00 0.00 62 1038.5
20260502004004 47 333 0.0 0.0 0.00 0.00 0.00 55 1038.4
20260502003502 47 322 1.0 1.0 0.00 0.00 0.00 55 1038.2
20260502002957 48 324 0.0 0.0 0.00 0.00 0.00 55 1038.3
20260502002455 48 325 0.0 0.0 0.00 0.00 0.00 56 1038.2
20260502001952 48 325 0.0 0.0 0.00 0.00 0.00 54 1038.0
20260502001449 48 325 0.0 0.0 0.00 0.00 0.00 55 1038.1
20260502000948 49 324 0.0 0.0 0.00 0.00 0.00 56 1038.0
20260502000446 49 326 0.0 0.0 0.00 0.00 0.00 52 1038.0
20260501235941 49 325 0.0 1.0 0.00 0.00 0.00 51 1037.8
20260501235437 49 326 0.0 0.0 0.00 0.00 0.00 52 1037.7
20260501234932 50 326 0.0 0.0 0.00 0.00 0.00 53 1037.8
20260501234429 50 325 0.0 1.0 0.00 0.00 0.00 51 1037.7
20260501233928 51 347 0.0 1.0 0.00 0.00 0.00 49 1037.4
20260501233425 51 349 0.0 0.0 0.00 0.00 0.00 48 1037.4
20260501232920 52 348 0.0 0.0 0.00 0.00 0.00 47 1037.4
20260501232418 52 348 0.0 0.0 0.00 0.00 0.00 46 1037.4
20260501231915 53 349 0.0 0.0 0.00 0.00 0.00 45 1037.1
20260501231414 53 349 0.0 0.0 0.00 0.00 0.00 45 1037.2
20260501230912 54 349 0.0 0.0 0.00 0.00 0.00 39 1037.3
20260501230410 54 89 2.0 2.0 0.00 0.00 0.00 39 1037.1
20260501225907 54 346 0.0 0.0 0.00 0.00 0.00 42 1036.9
20260501225405 55 335 0.0 0.0 0.00 0.00 0.00 39 1037.0
20260501224900 55 345 0.0 0.0 0.00 0.00 0.00 39 1037.0
20260501224358 55 5 0.0 1.0 0.00 0.00 0.00 40 1037.1
20260501223854 55 295 1.0 1.0 0.00 0.00 0.00 37 1037.1
20260501223350 56 327 0.0 1.0 0.00 0.00 0.00 38 1036.9
20260501222846 57 314 1.0 1.0 0.00 0.00 0.00 37 1036.9
20260501222344 57 326 0.0 0.0 0.00 0.00 0.00 36 1036.9
20260501221840 57 8 0.0 1.0 0.00 0.00 0.00 36 1037.0
20260501221338 57 324 0.0 0.0 0.00 0.00 0.00 37 1036.9
20260501220836 59 293 2.0 2.0 0.00 0.00 0.00 32 1037.0
20260501220333 60 317 1.0 1.0 0.00 0.00 0.00 33 1037.0
20260501215829 59 327 0.0 0.0 0.00 0.00 0.00 33 1036.9
20260501215326 58 324 1.0 1.0 0.00 0.00 0.00 35 1037.2
20260501214821 56 321 1.0 1.0 0.00 0.00 0.00 37 1037.2
20260501214316 56 302 1.0 1.0 0.00 0.00 0.00 35 1037.1
20260501213813 57 327 0.0 0.0 0.00 0.00 0.00 37 1037.2
20260501213309 59 325 2.0 3.0 0.00 0.00 0.00 33 1037.0
20260501212805 60 319 2.0 2.0 0.00 0.00 0.00 33 1037.2
20260501212305 60 325 0.0 0.0 0.00 0.00 0.00 33 1037.1